Weather History for Nome, AK

Change the Weather History Date:

Tuesday, February 26, 2013

  Actual Average Record
Temperature  
Mean Temperature -4 °F -  
Max Temperature 19 °F 17 °F 43 °F (1991)
Min Temperature -26 °F - -34 °F (1954)
Degree Days  
Heating Degree Days 69 56  
Month to date heating degree days 1710 1499  
Since 1 July heating degree days 9422 9170  
Cooling Degree Days 0    
Month to date cooling degree days 0  
Year to date cooling degree days 0  
Moisture  
Dew Point -20 °F    
Average Humidity 0    
Maximum Humidity 0    
Minimum Humidity 0    
Precipitation  
Precipitation 0.00 in 0.03 in 0.72 in (1945)
Month to date precipitation 0.36 0.87  
Year to date precipitation 1.52 1.81  
Snow  
Snow 0.00 in 0.50 in 4.60 in (1945)
Month to date snowfall 7.5 11.4  
Since 1 July snowfall 41.3 55.9  
Snow Depth 25.00 in    
Sea Level Pressure  
Sea Level Pressure 29.86 in    
Wind  
Wind Speed 3 mph (WNW)    
Max Wind Speed 22 mph    
Max Gust Speed 28 mph    
Visibility 10 miles    
Events      
T = Trace of Precipitation, MM = Missing Value Source: NWS Daily Summary

Daily Weather History Graph

Daily Weather History Graph

Search for Another Location

Airport:

Trip Planner

Search our weather history database for the weather conditions in past years. The results will help you decide how hot, cold, wet, or windy it might be!

Date:

Astronomy

Feb. 26, 2013 Rise Set
Actual Time 9:19 AM AKST 7:11 PM AKST
Civil Twilight 8:29 AM AKST 8:00 PM AKST
Nautical Twilight 7:34 AM AKST 8:56 PM AKST
Astronomical Twilight 6:37 AM AKST 9:54 PM AKST
Moon 9:33 PM AKST (2/26) 8:48 AM AKST (2/26)
Length of Visible Light 11h 30m
Length of Day
9h 52m
Full, 99% of the Moon is Illuminated
Feb 26
Full
Mar 4
Last Quarter
Mar 11
New
Mar 19
First Quarter
Mar 27
Full

Hourly Weather History & Observations

Time (AKST) Temp. Windchill Dew Point Humidity Pressure Visibility Wind Dir Wind Speed Gust Speed Precip Events Conditions
12:53 AM -23.1 °F - -29.9 °F 70% 30.06 in 10.0 mi Calm Calm - N/A   Clear
1:53 AM -23.1 °F - -29.9 °F 70% 30.04 in 10.0 mi Calm Calm - N/A   Clear
3:53 AM -22.0 °F - -27.9 °F 74% 30.04 in 10.0 mi Calm Calm - N/A   Clear
4:53 AM -25.1 °F - -31.0 °F 74% 30.03 in 10.0 mi Calm Calm - N/A   Clear
5:53 AM -23.1 °F - -29.0 °F 74% 30.02 in 10.0 mi Calm Calm - N/A   Scattered Clouds
6:53 AM -23.1 °F - -29.9 °F 70% 29.99 in 10.0 mi Calm Calm - N/A   Mostly Cloudy
7:53 AM -18.9 °F - -26.0 °F 70% 29.97 in 10.0 mi Calm Calm - N/A   Mostly Cloudy
8:53 AM -18.9 °F - -27.0 °F 66% 29.97 in 10.0 mi Calm Calm - N/A   Mostly Cloudy
9:53 AM -20.0 °F - -27.0 °F 70% 29.95 in 10.0 mi Calm Calm - N/A   Mostly Cloudy
10:53 AM -18.9 °F -29.5 °F -27.0 °F 66% 29.94 in 10.0 mi NW 3.5 mph - N/A   Scattered Clouds
11:53 AM -13.0 °F -32.4 °F -23.1 °F 61% 29.92 in 10.0 mi WNW 10.4 mph - N/A   Scattered Clouds
12:53 PM -11.9 °F -21.5 °F -20.9 °F 64% 29.88 in 10.0 mi SW 3.5 mph - N/A   Scattered Clouds
1:53 PM -9.9 °F - -18.0 °F 68% 29.86 in 10.0 mi Calm Calm - N/A   Mostly Cloudy
2:53 PM -7.1 °F - -17.0 °F 62% 29.83 in 10.0 mi Calm Calm - N/A   Mostly Cloudy
3:53 PM -4.0 °F - -13.0 °F 65% 29.80 in 10.0 mi Calm Calm - N/A   Mostly Cloudy
4:53 PM -0.9 °F - -13.0 °F 57% 29.78 in 10.0 mi Calm Calm - N/A   Mostly Cloudy
5:53 PM -4.0 °F - -14.1 °F 62% 29.73 in 10.0 mi Calm Calm - N/A   Mostly Cloudy
6:53 PM -6.0 °F -16.9 °F -13.0 °F 72% 29.70 in 10.0 mi South 4.6 mph - N/A   Mostly Cloudy
7:53 PM -5.1 °F -17.6 °F -11.9 °F 72% 29.68 in 10.0 mi Variable 5.8 mph - N/A   Mostly Cloudy
8:53 PM 5.0 °F -8.1 °F -6.0 °F 61% 29.67 in 10.0 mi SW 8.1 mph - N/A   Mostly Cloudy
9:53 PM 19.0 °F 12.3 °F -9.0 °F 29% 29.65 in 10.0 mi NW 4.6 mph 16.1 mph N/A   Mostly Cloudy
10:53 PM 18.0 °F 3.1 °F -6.0 °F 35% 29.62 in 10.0 mi NE 16.1 mph - N/A   Mostly Cloudy
11:53 PM 17.1 °F 2.0 °F -2.0 °F 43% 29.61 in 10.0 mi NE 16.1 mph - N/A   Mostly Cloudy